• En España
  • Lista de países
  • Para 7 días
  • Temperatura del agua
  • Mapa Satelital
  • El tiempo en el mapa
  • Informadores
  • user-avatar
    Iniciar sesión

    Tiempo cada hora Dobczyce

    Hoy, 25 Noviembre, Sábado

    Tiempo Temperatura Precipitaciones Viento Presión Humedad
    00:00 +7°C° 0 mm 2 mps 740 mmHg 81%
    01:00 +7°C° 0 mm 2 mps 740 mmHg 80%
    02:00 +7°C° 0 mm 2 mps 740 mmHg 81%
    03:00 +7°C° 0 mm 2 mps 740 mmHg 82%
    04:00 +7°C° 0 mm 2 mps 739 mmHg 83%
    05:00 +6°C° 0 mm 2 mps 739 mmHg 84%
    06:00 +6°C° 0 mm 2 mps 739 mmHg 85%
    07:00 +6°C° 0 mm 2 mps 738 mmHg 86%
    08:00 +7°C° 0 mm 2 mps 738 mmHg 81%
    09:00 +8°C° 0 mm 3 mps 738 mmHg 77%
    10:00 +9°C° 0 mm 3 mps 737 mmHg 72%
    11:00 +10°C° 0 mm 3 mps 736 mmHg 69%
    12:00 +11°C° 0 mm 4 mps 736 mmHg 66%
    13:00 +12°C° 0 mm 4 mps 735 mmHg 64%
    14:00 +10°C° 0 mm 4 mps 735 mmHg 68%
    15:00 +8°C° 0 mm 4 mps 735 mmHg 72%
    16:00 +8°C° 0 mm 3 mps 734 mmHg 76%
    17:00 +8°C° 0,1 mm 3 mps 734 mmHg 77%
    18:00 +8°C° 0,1 mm 3 mps 734 mmHg 79%
    19:00 +8°C° 0,1 mm 3 mps 734 mmHg 80%
    20:00 +8°C° 0,1 mm 3 mps 734 mmHg 81%
    21:00 +8°C° 0,1 mm 3 mps 734 mmHg 83%
    22:00 +8°C° 0,1 mm 3 mps 735 mmHg 84%
    23:00 +8°C° 0,1 mm 3 mps 735 mmHg 85%

    Mañana, 26 Noviembre, Domingo

    Tiempo Temperatura Precipitaciones Viento Presión Humedad
    00:00 +8°C° 0,1 mm 3 mps 735 mmHg 87%
    01:00 +7°C° 0,1 mm 3 mps 736 mmHg 88%
    02:00 +7°C° 0,2 mm 3 mps 736 mmHg 87%
    03:00 +7°C° 0,2 mm 3 mps 737 mmHg 86%
    04:00 +5°C° 0,2 mm 3 mps 737 mmHg 84%
    05:00 +5°C° 0,4 mm 3 mps 737 mmHg 84%
    06:00 +4°C° 0,4 mm 3 mps 738 mmHg 84%
    07:00 +4°C° 0,4 mm 3 mps 739 mmHg 83%
    08:00 +3°C° 0,6 mm 3 mps 739 mmHg 84%
    09:00 +3°C° 0,6 mm 3 mps 740 mmHg 84%
    10:00 +3°C° 0,6 mm 3 mps 740 mmHg 84%
    11:00 +3°C° 0,4 mm 3 mps 740 mmHg 83%
    12:00 +3°C° 0,4 mm 3 mps 741 mmHg 82%
    13:00 +3°C° 0,4 mm 3 mps 741 mmHg 82%
    14:00 +3°C° 0,2 mm 3 mps 741 mmHg 82%
    15:00 +3°C° 0,2 mm 3 mps 741 mmHg 83%
    16:00 +4°C° 0,2 mm 2 mps 742 mmHg 84%
    17:00 +3°C° 0 mm 2 mps 742 mmHg 85%
    18:00 +3°C° 0 mm 2 mps 742 mmHg 86%
    19:00 +2°C° 0 mm 2 mps 742 mmHg 87%
    20:00 +2°C° 0 mm 2 mps 743 mmHg 87%
    21:00 +1°C° 0 mm 2 mps 743 mmHg 88%
    22:00 +1°C° 0 mm 2 mps 743 mmHg 88%
    23:00 +1°C° 0 mm 2 mps 744 mmHg 88%

    Pasado mañana, 27 Noviembre, Lunes

    Tiempo Temperatura Precipitaciones Viento Presión Humedad
    00:00 -1°C° 0 mm 2 mps 744 mmHg 88%
    01:00 -1°C° 0 mm 2 mps 744 mmHg 88%
    02:00 -1°C° 0 mm 2 mps 744 mmHg 88%
    03:00 -1°C° 0 mm 2 mps 744 mmHg 88%
    04:00 -1°C° 0 mm 2 mps 744 mmHg 89%
    05:00 -1°C° 0 mm 2 mps 744 mmHg 88%
    06:00 -1°C° 0 mm 2 mps 745 mmHg 88%
    07:00 -1°C° 0 mm 2 mps 745 mmHg 88%
    08:00 +1°C° 0 mm 2 mps 745 mmHg 84%
    09:00 0°C° 0 mm 3 mps 745 mmHg 81%
    10:00 +1°C° 0 mm 3 mps 745 mmHg 77%
    11:00 +2°C° 0 mm 3 mps 745 mmHg 75%
    12:00 +2°C° 0 mm 3 mps 745 mmHg 73%
    13:00 +2°C° 0 mm 3 mps 745 mmHg 71%
    14:00 +3°C° 0 mm 2 mps 745 mmHg 74%
    15:00 +2°C° 0 mm 2 mps 744 mmHg 78%
    16:00 +2°C° 0 mm 1 mps 744 mmHg 82%
    17:00 +1°C° 0 mm 1 mps 744 mmHg 83%
    18:00 +1°C° 0 mm 1 mps 744 mmHg 84%
    19:00 0°C° 0 mm 1 mps 744 mmHg 85%
    20:00 0°C° 0 mm 1 mps 744 mmHg 84%
    21:00 0°C° 0 mm 1 mps 744 mmHg 84%
    22:00 0°C° 0 mm 1 mps 744 mmHg 84%
    23:00 0°C° 0 mm 1 mps 743 mmHg 84%

    28 Noviembre, Martes

    Tiempo Temperatura Precipitaciones Viento Presión Humedad
    00:00 0°C° 0 mm 1 mps 743 mmHg 83%
    01:00 -1°C° 0 mm 1 mps 743 mmHg 82%
    02:00 -1°C° 0 mm 1 mps 742 mmHg 81%
    03:00 -1°C° 0 mm 1 mps 742 mmHg 80%
    04:00 -3°C° 0 mm 2 mps 741 mmHg 79%
    05:00 -3°C° 0 mm 2 mps 741 mmHg 78%
    06:00 -3°C° 0 mm 2 mps 740 mmHg 77%
    07:00 -3°C° 0 mm 2 mps 740 mmHg 76%
    08:00 -2°C° 0 mm 2 mps 740 mmHg 71%
    09:00 +1°C° 0 mm 2 mps 739 mmHg 67%
    10:00 +2°C° 0 mm 2 mps 739 mmHg 62%
    11:00 +3°C° 0 mm 2 mps 738 mmHg 61%
    12:00 +5°C° 0 mm 1 mps 738 mmHg 59%
    13:00 +5°C° 0 mm 1 mps 737 mmHg 58%
    14:00 +4°C° 0 mm 1 mps 737 mmHg 64%
    15:00 +3°C° 0 mm 1 mps 736 mmHg 69%
    16:00 +1°C° 0 mm 1 mps 736 mmHg 75%
    17:00 +1°C° 0 mm 1 mps 736 mmHg 75%
    18:00 -1°C° 0 mm 2 mps 736 mmHg 76%
    19:00 -1°C° 0 mm 2 mps 736 mmHg 76%
    20:00 -2°C° 0 mm 2 mps 735 mmHg 73%
    21:00 -2°C° 0 mm 2 mps 735 mmHg 71%
    22:00 -2°C° 0 mm 2 mps 735 mmHg 68%
    23:00 -2°C° 0 mm 2 mps 735 mmHg 67%

    29 Noviembre, Miércoles

    Tiempo Temperatura Precipitaciones Viento Presión Humedad
    00:00 0°C° 0 mm 1 mps 735 mmHg 65%
    01:00 0°C° 0 mm 1 mps 735 mmHg 64%
    02:00 0°C° 0 mm 1 mps 735 mmHg 63%
    03:00 0°C° 0 mm 1 mps 734 mmHg 62%
    04:00 0°C° 0 mm 1 mps 734 mmHg 61%
    05:00 +1°C° 0 mm 1 mps 734 mmHg 61%
    06:00 +1°C° 0 mm 1 mps 734 mmHg 61%
    07:00 +1°C° 0 mm 1 mps 734 mmHg 61%
    08:00 +2°C° 0 mm 1 mps 734 mmHg 59%
    09:00 +2°C° 0 mm 1 mps 734 mmHg 58%
    10:00 +3°C° 0 mm 1 mps 734 mmHg 57%
    11:00 +4°C° 0 mm 1 mps 734 mmHg 57%
    12:00 +4°C° 0 mm 1 mps 734 mmHg 57%
    13:00 +5°C° 0 mm 1 mps 734 mmHg 56%
    14:00 +4°C° 0 mm 1 mps 734 mmHg 61%
    15:00 +3°C° 0 mm 1 mps 734 mmHg 65%
    16:00 +2°C° 0 mm 1 mps 734 mmHg 69%
    17:00 +1°C° 0 mm 1 mps 734 mmHg 71%
    18:00 -1°C° 0 mm 2 mps 734 mmHg 73%
    19:00 -1°C° 0 mm 2 mps 734 mmHg 76%
    20:00 -1°C° 0 mm 2 mps 734 mmHg 76%
    21:00 -1°C° 0 mm 2 mps 734 mmHg 77%
    22:00 +1°C° 0 mm 1 mps 734 mmHg 77%
    23:00 +1°C° 0,2 mm 1 mps 734 mmHg 80%

    30 Noviembre, Jueves

    Tiempo Temperatura Precipitaciones Viento Presión Humedad
    00:00 +1°C° 0,2 mm 1 mps 733 mmHg 82%
    01:00 +1°C° 0,2 mm 1 mps 733 mmHg 84%
    02:00 +1°C° 0,6 mm 1 mps 733 mmHg 88%
    03:00 +1°C° 0,6 mm 1 mps 732 mmHg 91%
    04:00 +1°C° 0,6 mm 1 mps 732 mmHg 94%
    05:00 +1°C° 0,5 mm 1 mps 732 mmHg 95%
    06:00 0°C° 0,5 mm 0 mps 731 mmHg 95%
    07:00 0°C° 0,5 mm 0 mps 731 mmHg 96%
    08:00 +1°C° 0,2 mm 0 mps 731 mmHg 95%
    09:00 +2°C° 0,2 mm 1 mps 731 mmHg 94%
    10:00 +2°C° 0,2 mm 1 mps 730 mmHg 93%
    11:00 +3°C° 0,3 mm 1 mps 730 mmHg 93%
    12:00 +3°C° 0,3 mm 1 mps 730 mmHg 92%
    13:00 +3°C° 0,3 mm 1 mps 730 mmHg 92%
    14:00 +3°C° 0,2 mm 1 mps 730 mmHg 93%
    15:00 +2°C° 0,2 mm 1 mps 729 mmHg 94%
    16:00 +2°C° 0,2 mm 1 mps 729 mmHg 94%
    17:00 +2°C° 0,1 mm 1 mps 730 mmHg 94%
    18:00 +2°C° 0,1 mm 1 mps 730 mmHg 94%
    19:00 +1°C° 0,1 mm 1 mps 730 mmHg 94%
    20:00 +1°C° 0 mm 1 mps 731 mmHg 94%
    21:00 0°C° 0 mm 1 mps 731 mmHg 94%
    22:00 -2°C° 0 mm 2 mps 731 mmHg 94%
    23:00 -1°C° 0 mm 1 mps 731 mmHg 94%
    Mostrar más